| time (UTC) | temp C | wind direction | speed KPH | gust KPH | rain 1hr cm | rain 24hr cm | rain mn cm | humidity % | barometer mb |
| 20260505101857 | 20 | 200 | 1.6 | 1.6 | 0.00 | 0.00 | 0.00 | 95 | 1006.7 |
| 20260505101504 | 20 | 152 | 3.2 | 8.0 | 0.00 | 0.00 | 0.00 | 94 | 1011.4 |
| 20260505101351 | 20 | 154 | 3.2 | 3.2 | 0.00 | 0.00 | 0.00 | 94 | 1006.8 |
| 20260505100848 | 20 | 186 | 1.6 | 3.2 | 0.00 | 0.00 | 0.00 | 95 | 1006.9 |
| 20260505100503 | 19 | 4 | 1.6 | 3.2 | 0.00 | 0.00 | 0.00 | 94 | 1011.5 |
| 20260505100344 | 20 | 141 | 0.0 | 1.6 | 0.00 | 0.00 | 0.00 | 94 | 1006.9 |
| 20260505100003 | 19 | 149 | 3.2 | 3.2 | 0.00 | 0.00 | 0.00 | 94 | 1011.6 |
| 20260505095840 | 20 | 144 | 3.2 | 3.2 | 0.00 | 0.00 | 0.00 | 94 | 1007.0 |
| 20260505095338 | 20 | 234 | 3.2 | 3.2 | 0.00 | 0.00 | 0.00 | 94 | 1007.1 |
| 20260505094834 | 20 | 144 | 1.6 | 3.2 | 0.00 | 0.00 | 0.00 | 94 | 1007.3 |
| 20260505094503 | 19 | 172 | 1.6 | 1.6 | 0.00 | 0.00 | 0.00 | 94 | 1011.9 |
| 20260505094331 | 20 | 174 | 1.6 | 1.6 | 0.00 | 0.00 | 0.00 | 94 | 1007.3 |
| 20260505094003 | 19 | 179 | 0.0 | 3.2 | 0.00 | 0.00 | 0.00 | 94 | 1011.8 |
| 20260505093826 | 19 | 183 | 0.0 | 1.6 | 0.00 | 0.00 | 0.00 | 94 | 1007.2 |
| 20260505093503 | 19 | 185 | 1.6 | 3.2 | 0.00 | 0.00 | 0.00 | 94 | 1012.0 |
| 20260505093324 | 19 | 161 | 1.6 | 1.6 | 0.00 | 0.00 | 0.00 | 94 | 1007.4 |
| 20260505093004 | 19 | 173 | 1.6 | 3.2 | 0.00 | 0.00 | 0.00 | 94 | 1012.0 |
| 20260505092820 | 20 | 165 | 1.6 | 1.6 | 0.00 | 0.00 | 0.00 | 94 | 1007.5 |
| 20260505092319 | 19 | 152 | 1.6 | 3.2 | 0.00 | 0.00 | 0.00 | 94 | 1007.5 |
| 20260505091816 | 19 | 145 | 1.6 | 1.6 | 0.00 | 0.00 | 0.00 | 94 | 1007.4 |
| 20260505091314 | 19 | 173 | 1.6 | 1.6 | 0.00 | 0.00 | 0.00 | 94 | 1007.6 |
| 20260505091004 | 19 | 197 | 0.0 | 1.6 | 0.00 | 0.00 | 0.00 | 94 | 1012.2 |
| 20260505090812 | 19 | 140 | 0.0 | 0.0 | 0.00 | 0.00 | 0.00 | 94 | 1007.5 |
| 20260505090504 | 19 | 197 | 0.0 | 0.0 | 0.00 | 0.00 | 0.00 | 94 | 1012.3 |
| 20260505090310 | 19 | 196 | 0.0 | 0.0 | 0.00 | 0.00 | 0.00 | 94 | 1007.5 |
| 20260505090004 | 19 | 194 | 0.0 | 0.0 | 0.00 | 0.00 | 0.00 | 94 | 1012.3 |
| 20260505085807 | 19 | 200 | 0.0 | 0.0 | 0.00 | 0.00 | 0.00 | 94 | 1007.6 |
| 20260505085305 | 19 | 173 | 0.0 | 0.0 | 0.00 | 0.00 | 0.00 | 94 | 1007.4 |
| 20260505084802 | 19 | 205 | 0.0 | 0.0 | 0.00 | 0.00 | 0.00 | 93 | 1007.5 |
| 20260505084301 | 19 | 201 | 0.0 | 0.0 | 0.00 | 0.00 | 0.00 | 93 | 1007.6 |
| 20260505084003 | 19 | 193 | 0.0 | 1.6 | 0.00 | 0.00 | 0.00 | 93 | 1012.3 |
| 20260505083757 | 19 | 206 | 0.0 | 0.0 | 0.00 | 0.00 | 0.00 | 93 | 1007.8 |
| 20260505083503 | 19 | 200 | 0.0 | 1.6 | 0.00 | 0.00 | 0.00 | 93 | 1012.3 |
| 20260505083254 | 19 | 205 | 1.6 | 1.6 | 0.00 | 0.00 | 0.00 | 93 | 1007.8 |
| 20260505083005 | 19 | 201 | 0.0 | 1.6 | 0.00 | 0.00 | 0.00 | 93 | 1012.3 |
| 20260505082750 | 19 | 205 | 0.0 | 1.6 | 0.00 | 0.00 | 0.00 | 93 | 1007.5 |
| 20260505082248 | 19 | 173 | 1.6 | 1.6 | 0.00 | 0.00 | 0.00 | 93 | 1007.6 |
| 20260505081743 | 19 | 214 | 1.6 | 1.6 | 0.00 | 0.00 | 0.00 | 92 | 1007.6 |
| 20260505081503 | 19 | 196 | 1.6 | 1.6 | 0.00 | 0.00 | 0.00 | 92 | 1012.4 |
| 20260505081241 | 19 | 188 | 1.6 | 1.6 | 0.00 | 0.00 | 0.00 | 92 | 1007.7 |
| 20260505081004 | 19 | 167 | 1.6 | 3.2 | 0.00 | 0.00 | 0.00 | 92 | 1012.6 |
| 20260505080738 | 19 | 162 | 0.0 | 1.6 | 0.00 | 0.00 | 0.00 | 92 | 1007.8 |
| 20260505080503 | 19 | 170 | 1.6 | 3.2 | 0.00 | 0.00 | 0.00 | 92 | 1012.5 |
| 20260505080233 | 19 | 176 | 0.0 | 1.6 | 0.00 | 0.00 | 0.00 | 92 | 1007.8 |
| 20260505075729 | 19 | 197 | 3.2 | 3.2 | 0.00 | 0.00 | 0.00 | 91 | 1008.0 |
| 20260505075226 | 19 | 166 | 0.0 | 0.0 | 0.00 | 0.00 | 0.00 | 91 | 1007.9 |
| 20260505074724 | 19 | 184 | 0.0 | 0.0 | 0.00 | 0.00 | 0.00 | 91 | 1008.0 |
| 20260505074504 | 19 | 215 | 0.0 | 0.0 | 0.00 | 0.00 | 0.00 | 91 | 1012.8 |
| 20260505074221 | 19 | 182 | 0.0 | 0.0 | 0.00 | 0.00 | 0.00 | 91 | 1008.2 |
| 20260505074004 | 19 | 192 | 0.0 | 3.2 | 0.00 | 0.00 | 0.00 | 91 | 1012.9 |
| 20260505073718 | 19 | 182 | 1.6 | 1.6 | 0.00 | 0.00 | 0.00 | 91 | 1008.2 |
| 20260505073503 | 19 | 227 | 0.0 | 3.2 | 0.00 | 0.00 | 0.00 | 91 | 1012.9 |
| 20260505073216 | 19 | 199 | 0.0 | 0.0 | 0.00 | 0.00 | 0.00 | 91 | 1008.1 |
| 20260505073004 | 19 | 178 | 0.0 | 3.2 | 0.00 | 0.00 | 0.00 | 91 | 1012.8 |
| 20260505072712 | 19 | 206 | 1.6 | 1.6 | 0.00 | 0.00 | 0.00 | 90 | 1008.0 |
| 20260505072208 | 20 | 164 | 1.6 | 3.2 | 0.00 | 0.00 | 0.00 | 90 | 1008.1 |
| 20260505071704 | 20 | 196 | 0.0 | 0.0 | 0.00 | 0.00 | 0.00 | 90 | 1008.1 |
| 20260505071201 | 20 | 191 | 0.0 | 0.0 | 0.00 | 0.00 | 0.00 | 90 | 1008.1 |
| 20260505071004 | 19 | 191 | 0.0 | 3.2 | 0.00 | 0.00 | 0.00 | 90 | 1012.7 |
| 20260505070659 | 20 | 225 | 3.2 | 3.2 | 0.00 | 0.00 | 0.00 | 89 | 1008.4 |
| 20260505070503 | 20 | 188 | 0.0 | 3.2 | 0.00 | 0.00 | 0.00 | 89 | 1012.9 |
| 20260505070154 | 20 | 205 | 0.0 | 0.0 | 0.00 | 0.00 | 0.00 | 89 | 1008.4 |
| 20260505070004 | 20 | 183 | 1.6 | 3.2 | 0.00 | 0.00 | 0.00 | 89 | 1012.8 |
| 20260505065650 | 20 | 248 | 0.0 | 1.6 | 0.00 | 0.00 | 0.00 | 89 | 1008.1 |
| 20260505065148 | 20 | 180 | 0.0 | 1.6 | 0.00 | 0.00 | 0.00 | 88 | 1008.3 |
| 20260505064644 | 20 | 189 | 1.6 | 1.6 | 0.00 | 0.00 | 0.00 | 88 | 1008.2 |
| 20260505064503 | 20 | 169 | 1.6 | 4.8 | 0.00 | 0.00 | 0.00 | 88 | 1013.1 |
| 20260505064143 | 20 | 173 | 1.6 | 1.6 | 0.00 | 0.00 | 0.00 | 88 | 1008.4 |
| 20260505064003 | 20 | 193 | 1.6 | 3.2 | 0.00 | 0.00 | 0.00 | 88 | 1013.3 |
| 20260505063640 | 20 | 150 | 1.6 | 3.2 | 0.00 | 0.00 | 0.00 | 88 | 1008.5 |
| 20260505063503 | 20 | 175 | 1.6 | 3.2 | 0.00 | 0.00 | 0.00 | 87 | 1013.2 |
| 20260505063136 | 20 | 182 | 1.6 | 3.2 | 0.00 | 0.00 | 0.00 | 87 | 1008.5 |
| 20260505063004 | 20 | 166 | 1.6 | 4.8 | 0.00 | 0.00 | 0.00 | 87 | 1013.1 |
| 20260505062633 | 20 | 208 | 3.2 | 4.8 | 0.00 | 0.00 | 0.00 | 87 | 1008.7 |
| 20260505062130 | 20 | 202 | 1.6 | 1.6 | 0.00 | 0.00 | 0.00 | 87 | 1008.8 |
| 20260505061627 | 20 | 190 | 1.6 | 3.2 | 0.00 | 0.00 | 0.00 | 87 | 1008.6 |
| 20260505061503 | 20 | 131 | 1.6 | 4.8 | 0.00 | 0.00 | 0.00 | 86 | 1013.1 |
| 20260505061125 | 20 | 179 | 1.6 | 1.6 | 0.00 | 0.00 | 0.00 | 86 | 1008.5 |
| 20260505061004 | 20 | 161 | 3.2 | 8.0 | 0.00 | 0.00 | 0.00 | 86 | 1013.2 |
| 20260505060622 | 20 | 42 | 1.6 | 1.6 | 0.00 | 0.00 | 0.00 | 86 | 1008.5 |
| 20260505060503 | 20 | 196 | 1.6 | 4.8 | 0.00 | 0.00 | 0.00 | 86 | 1013.1 |
| 20260505060119 | 20 | 165 | 1.6 | 1.6 | 0.00 | 0.00 | 0.00 | 86 | 1008.5 |
| 20260505055614 | 20 | 199 | 3.2 | 3.2 | 0.00 | 0.00 | 0.00 | 86 | 1008.8 |
| 20260505055111 | 20 | 172 | 0.0 | 1.6 | 0.00 | 0.00 | 0.00 | 85 | 1008.6 |
| 20260505054608 | 20 | 158 | 1.6 | 3.2 | 0.00 | 0.00 | 0.00 | 85 | 1008.9 |
| 20260505054504 | 20 | 183 | 1.6 | 3.2 | 0.00 | 0.00 | 0.00 | 85 | 1013.4 |
| 20260505054106 | 20 | 175 | 0.0 | 0.0 | 0.00 | 0.00 | 0.00 | 85 | 1008.7 |
| 20260505053603 | 20 | 219 | 3.2 | 3.2 | 0.00 | 0.00 | 0.00 | 85 | 1008.8 |
| 20260505053503 | 20 | 188 | 1.6 | 3.2 | 0.00 | 0.00 | 0.00 | 85 | 1013.4 |
| 20260505053059 | 20 | 189 | 1.6 | 1.6 | 0.00 | 0.00 | 0.00 | 84 | 1008.9 |
| 20260505053004 | 20 | 158 | 1.6 | 4.8 | 0.00 | 0.00 | 0.00 | 84 | 1013.5 |
| 20260505052556 | 20 | 140 | 1.6 | 3.2 | 0.00 | 0.00 | 0.00 | 84 | 1008.8 |
| 20260505052054 | 20 | 140 | 3.2 | 3.2 | 0.00 | 0.00 | 0.00 | 84 | 1008.7 |
| 20260505051551 | 20 | 178 | 1.6 | 1.6 | 0.00 | 0.00 | 0.00 | 84 | 1008.6 |
| 20260505051503 | 20 | 128 | 3.2 | 4.8 | 0.00 | 0.00 | 0.00 | 84 | 1013.5 |
| 20260505051049 | 20 | 187 | 0.0 | 1.6 | 0.00 | 0.00 | 0.00 | 84 | 1008.8 |
| 20260505051004 | 20 | 169 | 1.6 | 3.2 | 0.00 | 0.00 | 0.00 | 84 | 1013.5 |
| 20260505050547 | 20 | 199 | 0.0 | 1.6 | 0.00 | 0.00 | 0.00 | 84 | 1008.9 |
| 20260505041515 | 21 | 150 | 0.0 | 1.6 | 0.00 | 0.00 | 0.00 | 82 | 1009.1 |
| 20260505041504 | 21 | 156 | 1.6 | 4.8 | 0.00 | 0.00 | 0.00 | 82 | 1013.8 |
| 20260505041012 | 21 | 188 | 4.8 | 4.8 | 0.00 | 0.00 | 0.00 | 81 | 1009.1 |
| 20260505041004 | 21 | 174 | 1.6 | 4.8 | 0.00 | 0.00 | 0.00 | 82 | 1013.9 |
| 20260505040509 | 21 | 217 | 1.6 | 1.6 | 0.00 | 0.00 | 0.00 | 82 | 1009.2 |
| 20260505040504 | 21 | 178 | 1.6 | 1.6 | 0.00 | 0.00 | 0.00 | 82 | 1013.8 |
| 20260505040007 | 21 | 180 | 1.6 | 1.6 | 0.00 | 0.00 | 0.00 | 81 | 1009.1 |
| 20260505040004 | 21 | 175 | 1.6 | 3.2 | 0.00 | 0.00 | 0.00 | 82 | 1013.6 |
| 20260505035502 | 21 | 184 | 1.6 | 1.6 | 0.00 | 0.00 | 0.00 | 82 | 1009.2 |
| 20260505034959 | 21 | 164 | 1.6 | 1.6 | 0.00 | 0.00 | 0.00 | 81 | 1009.1 |
| 20260505034503 | 21 | 140 | 1.6 | 3.2 | 0.00 | 0.00 | 0.00 | 81 | 1013.8 |
| 20260505034455 | 21 | 184 | 0.0 | 1.6 | 0.00 | 0.00 | 0.00 | 81 | 1009.1 |
| 20260505034004 | 21 | 168 | 1.6 | 3.2 | 0.00 | 0.00 | 0.00 | 81 | 1013.6 |
| 20260505033953 | 21 | 145 | 1.6 | 3.2 | 0.00 | 0.00 | 0.00 | 81 | 1008.9 |
| 20260505033504 | 21 | 162 | 3.2 | 4.8 | 0.00 | 0.00 | 0.00 | 81 | 1013.7 |
| 20260505033449 | 21 | 204 | 0.0 | 1.6 | 0.00 | 0.00 | 0.00 | 80 | 1009.1 |
| 20260505032948 | 21 | 162 | 3.2 | 3.2 | 0.00 | 0.00 | 0.00 | 81 | 1009.2 |
| 20260505032445 | 21 | 136 | 3.2 | 3.2 | 0.00 | 0.00 | 0.00 | 80 | 1009.2 |
| 20260505031941 | 21 | 151 | 1.6 | 1.6 | 0.00 | 0.00 | 0.00 | 80 | 1008.9 |
| 20260505031504 | 21 | 190 | 1.6 | 3.2 | 0.00 | 0.00 | 0.00 | 80 | 1013.5 |
| 20260505031438 | 21 | 141 | 1.6 | 3.2 | 0.00 | 0.00 | 0.00 | 80 | 1009.0 |
| 20260505031004 | 21 | 175 | 0.0 | 1.6 | 0.00 | 0.00 | 0.00 | 79 | 1013.7 |
| 20260505030935 | 21 | 177 | 1.6 | 1.6 | 0.00 | 0.00 | 0.00 | 79 | 1009.1 |
| 20260505030431 | 21 | 186 | 1.6 | 1.6 | 0.00 | 0.00 | 0.00 | 79 | 1009.1 |
| 20260505030003 | 21 | 178 | 1.6 | 3.2 | 0.00 | 0.00 | 0.00 | 78 | 1013.7 |
| 20260505025926 | 21 | 173 | 1.6 | 3.2 | 0.00 | 0.00 | 0.00 | 78 | 1009.1 |
| 20260505025424 | 21 | 200 | 1.6 | 1.6 | 0.00 | 0.00 | 0.00 | 78 | 1009.1 |
| 20260505024923 | 21 | 213 | 0.0 | 0.0 | 0.00 | 0.00 | 0.00 | 78 | 1009.4 |
| 20260505024503 | 21 | 158 | 1.6 | 1.6 | 0.00 | 0.00 | 0.00 | 77 | 1013.8 |
| 20260505024420 | 21 | 157 | 1.6 | 1.6 | 0.00 | 0.00 | 0.00 | 77 | 1009.2 |
| 20260505024004 | 21 | 179 | 1.6 | 1.6 | 0.00 | 0.00 | 0.00 | 77 | 1013.9 |
| 20260505023917 | 21 | 179 | 1.6 | 1.6 | 0.00 | 0.00 | 0.00 | 77 | 1009.3 |
| 20260505023504 | 21 | 180 | 1.6 | 3.2 | 0.00 | 0.00 | 0.00 | 77 | 1013.6 |
| 20260505023414 | 21 | 180 | 1.6 | 1.6 | 0.00 | 0.00 | 0.00 | 77 | 1008.9 |
| 20260505023004 | 21 | 165 | 1.6 | 3.2 | 0.00 | 0.00 | 0.00 | 76 | 1013.6 |
| 20260505022911 | 21 | 165 | 1.6 | 1.6 | 0.00 | 0.00 | 0.00 | 76 | 1008.8 |
| 20260505022408 | 21 | 192 | 1.6 | 1.6 | 0.00 | 0.00 | 0.00 | 75 | 1009.1 |
| 20260505021905 | 22 | 142 | 1.6 | 3.2 | 0.00 | 0.00 | 0.00 | 75 | 1009.1 |
| 20260505021504 | 22 | 183 | 1.6 | 3.2 | 0.00 | 0.00 | 0.00 | 75 | 1013.6 |
| 20260505021401 | 22 | 168 | 0.0 | 1.6 | 0.00 | 0.00 | 0.00 | 75 | 1009.0 |
| 20260505021004 | 22 | 189 | 1.6 | 4.8 | 0.00 | 0.00 | 0.00 | 74 | 1013.5 |
| 20260505020857 | 22 | 189 | 1.6 | 1.6 | 0.00 | 0.00 | 0.00 | 74 | 1008.9 |
| 20260505020504 | 22 | 177 | 1.6 | 4.8 | 0.00 | 0.00 | 0.00 | 74 | 1013.0 |
| 20260505020353 | 22 | 160 | 1.6 | 1.6 | 0.00 | 0.00 | 0.00 | 74 | 1008.4 |
| 20260505015850 | 22 | 193 | 1.6 | 3.2 | 0.00 | 0.00 | 0.00 | 74 | 1008.3 |
| 20260505015347 | 22 | 199 | 0.0 | 0.0 | 0.00 | 0.00 | 0.00 | 74 | 1008.2 |
| 20260505014845 | 22 | 181 | 0.0 | 0.0 | 0.00 | 0.00 | 0.00 | 74 | 1008.2 |
| 20260505014504 | 22 | 192 | 1.6 | 3.2 | 0.00 | 0.00 | 0.00 | 73 | 1013.0 |
| 20260505014341 | 22 | 194 | 1.6 | 1.6 | 0.00 | 0.00 | 0.00 | 73 | 1008.2 |
| 20260505014004 | 22 | 183 | 0.0 | 3.2 | 0.00 | 0.00 | 0.00 | 73 | 1012.9 |
| 20260505013838 | 22 | 194 | 0.0 | 1.6 | 0.00 | 0.00 | 0.00 | 73 | 1008.3 |
| 20260505013504 | 22 | 153 | 3.2 | 4.8 | 0.00 | 0.00 | 0.00 | 72 | 1013.0 |
| 20260505013335 | 22 | 156 | 3.2 | 4.8 | 0.00 | 0.00 | 0.00 | 72 | 1008.4 |
| 20260505013004 | 22 | 185 | 1.6 | 3.2 | 0.00 | 0.00 | 0.00 | 72 | 1012.9 |
| 20260505012834 | 22 | 187 | 1.6 | 1.6 | 0.00 | 0.00 | 0.00 | 72 | 1008.3 |
| 20260505012331 | 22 | 189 | 0.0 | 0.0 | 0.00 | 0.00 | 0.00 | 72 | 1008.3 |
| 20260505011827 | 22 | 169 | 0.0 | 1.6 | 0.00 | 0.00 | 0.00 | 71 | 1008.2 |
| 20260505011324 | 22 | 160 | 1.6 | 3.2 | 0.00 | 0.00 | 0.00 | 71 | 1008.2 |
| 20260505011004 | 23 | 171 | 0.0 | 3.2 | 0.00 | 0.00 | 0.00 | 70 | 1012.9 |
| 20260505010820 | 23 | 182 | 0.0 | 0.0 | 0.00 | 0.00 | 0.00 | 71 | 1008.1 |
| 20260505010504 | 23 | 156 | 1.6 | 1.6 | 0.00 | 0.00 | 0.00 | 70 | 1013.0 |
| 20260505010316 | 23 | 188 | 1.6 | 1.6 | 0.00 | 0.00 | 0.00 | 69 | 1008.4 |
| 20260505005812 | 23 | 147 | 1.6 | 3.2 | 0.00 | 0.00 | 0.00 | 69 | 1008.5 |
| 20260505005309 | 23 | 187 | 0.0 | 1.6 | 0.00 | 0.00 | 0.00 | 68 | 1008.3 |
| 20260505004807 | 23 | 162 | 1.6 | 1.6 | 0.00 | 0.00 | 0.00 | 68 | 1008.4 |
| 20260505004504 | 23 | 177 | 0.0 | 0.0 | 0.00 | 0.00 | 0.00 | 68 | 1013.0 |
| 20260505004302 | 23 | 200 | 0.0 | 0.0 | 0.00 | 0.00 | 0.00 | 67 | 1008.5 |
| 20260505004004 | 23 | 187 | 0.0 | 3.2 | 0.00 | 0.00 | 0.00 | 67 | 1013.2 |
| 20260505003800 | 23 | 195 | 0.0 | 0.0 | 0.00 | 0.00 | 0.00 | 67 | 1008.4 |
| 20260505003258 | 23 | 208 | 1.6 | 1.6 | 0.00 | 0.00 | 0.00 | 67 | 1008.4 |
| 20260505003004 | 23 | 182 | 0.0 | 3.2 | 0.00 | 0.00 | 0.00 | 66 | 1013.2 |
| 20260505002754 | 23 | 184 | 0.0 | 0.0 | 0.00 | 0.00 | 0.00 | 66 | 1008.5 |
| 20260505002251 | 24 | 158 | 1.6 | 1.6 | 0.00 | 0.00 | 0.00 | 65 | 1008.6 |
| 20260505001749 | 24 | 209 | 1.6 | 1.6 | 0.00 | 0.00 | 0.00 | 65 | 1008.7 |
| 20260505001504 | 24 | 174 | 1.6 | 3.2 | 0.00 | 0.00 | 0.00 | 64 | 1013.1 |
| 20260505001246 | 24 | 213 | 1.6 | 1.6 | 0.00 | 0.00 | 0.00 | 64 | 1008.5 |
| 20260505001004 | 24 | 178 | 1.6 | 3.2 | 0.00 | 0.00 | 0.00 | 65 | 1013.1 |
| 20260505000743 | 24 | 201 | 0.0 | 0.0 | 0.00 | 0.00 | 0.00 | 65 | 1008.5 |
| 20260505000504 | 24 | 171 | 3.2 | 3.2 | 0.00 | 0.00 | 0.00 | 63 | 1013.4 |
| 20260505000241 | 25 | 156 | 3.2 | 3.2 | 0.00 | 0.00 | 0.00 | 63 | 1008.6 |
| 20260505000004 | 25 | 179 | 0.0 | 3.2 | 0.00 | 0.00 | 0.00 | 64 | 1013.4 |
| 20260504235737 | 25 | 173 | 1.6 | 1.6 | 0.00 | 0.00 | 0.00 | 64 | 1008.8 |
| 20260504235233 | 25 | 174 | 1.6 | 1.6 | 0.00 | 0.00 | 0.00 | 63 | 1008.7 |
| 20260504234731 | 25 | 218 | 3.2 | 3.2 | 0.00 | 0.00 | 0.00 | 63 | 1008.6 |
| 20260504234504 | 25 | 207 | 1.6 | 3.2 | 0.00 | 0.00 | 0.00 | 63 | 1013.5 |
| 20260504234228 | 25 | 202 | 0.0 | 1.6 | 0.00 | 0.00 | 0.00 | 63 | 1008.8 |
| 20260504234004 | 25 | 183 | 1.6 | 3.2 | 0.00 | 0.00 | 0.00 | 63 | 1013.3 |
| 20260504233724 | 25 | 175 | 0.0 | 1.6 | 0.00 | 0.00 | 0.00 | 63 | 1008.6 |
| 20260504233504 | 25 | 176 | 1.6 | 3.2 | 0.00 | 0.00 | 0.00 | 63 | 1013.3 |
| 20260504233220 | 25 | 197 | 1.6 | 3.2 | 0.00 | 0.00 | 0.00 | 62 | 1008.8 |
| 20260504233003 | 25 | 162 | 1.6 | 3.2 | 0.00 | 0.00 | 0.00 | 62 | 1013.5 |
| 20260504232717 | 25 | 208 | 0.0 | 0.0 | 0.00 | 0.00 | 0.00 | 62 | 1009.0 |
| 20260504232214 | 25 | 213 | 0.0 | 0.0 | 0.00 | 0.00 | 0.00 | 62 | 1009.0 |
| 20260504231711 | 25 | 244 | 1.6 | 3.2 | 0.00 | 0.00 | 0.00 | 61 | 1008.9 |
| 20260504231504 | 25 | 177 | 1.6 | 3.2 | 0.00 | 0.00 | 0.00 | 61 | 1013.6 |
| 20260504231207 | 25 | 157 | 1.6 | 3.2 | 0.00 | 0.00 | 0.00 | 61 | 1009.0 |
| 20260504230703 | 25 | 155 | 1.6 | 1.6 | 0.00 | 0.00 | 0.00 | 60 | 1009.2 |
| 20260504230504 | 25 | 192 | 0.0 | 1.6 | 0.00 | 0.00 | 0.00 | 59 | 1013.7 |
| 20260504230202 | 25 | 184 | 0.0 | 0.0 | 0.00 | 0.00 | 0.00 | 60 | 1009.0 |
| 20260504230004 | 26 | 216 | 0.0 | 4.8 | 0.00 | 0.00 | 0.00 | 59 | 1013.9 |
| 20260504225700 | 26 | 214 | 3.2 | 4.8 | 0.00 | 0.00 | 0.00 | 58 | 1009.2 |
| 20260504225156 | 26 | 195 | 0.0 | 1.6 | 0.00 | 0.00 | 0.00 | 59 | 1009.4 |
| 20260504224653 | 26 | 197 | 1.6 | 1.6 | 0.00 | 0.00 | 0.00 | 58 | 1009.5 |
| 20260504224504 | 26 | 218 | 0.0 | 4.8 | 0.00 | 0.00 | 0.00 | 58 | 1014.1 |
| 20260504224150 | 26 | 196 | 1.6 | 1.6 | 0.00 | 0.00 | 0.00 | 58 | 1009.3 |
| 20260504224004 | 26 | 223 | 3.2 | 8.0 | 0.00 | 0.00 | 0.00 | 57 | 1013.9 |
| 20260504223647 | 26 | 218 | 0.0 | 1.6 | 0.00 | 0.00 | 0.00 | 58 | 1009.4 |
| 20260504223504 | 26 | 163 | 1.6 | 3.2 | 0.00 | 0.00 | 0.00 | 57 | 1014.0 |
| 20260504223142 | 26 | 214 | 1.6 | 3.2 | 0.00 | 0.00 | 0.00 | 57 | 1009.3 |
| 20260504223004 | 26 | 202 | 1.6 | 3.2 | 0.00 | 0.00 | 0.00 | 57 | 1014.1 |
| 20260504222640 | 26 | 244 | 3.2 | 3.2 | 0.00 | 0.00 | 0.00 | 57 | 1009.7 |
| 20260504222137 | 26 | 181 | 1.6 | 1.6 | 0.00 | 0.00 | 0.00 | 57 | 1009.5 |
| 20260504221634 | 26 | 144 | 3.2 | 3.2 | 0.00 | 0.00 | 0.00 | 55 | 1009.6 |
| 20260504221131 | 26 | 198 | 4.8 | 4.8 | 0.00 | 0.00 | 0.00 | 55 | 1009.8 |
| 20260504221004 | 26 | 182 | 1.6 | 3.2 | 0.00 | 0.00 | 0.00 | 55 | 1014.4 |
| 20260504220627 | 26 | 190 | 1.6 | 1.6 | 0.00 | 0.00 | 0.00 | 56 | 1009.8 |
| 20260504220125 | 26 | 184 | 1.6 | 1.6 | 0.00 | 0.00 | 0.00 | 54 | 1009.7 |
| 20260504220003 | 26 | 210 | 1.6 | 8.0 | 0.00 | 0.00 | 0.00 | 54 | 1014.3 |
| 20260504215621 | 26 | 239 | 3.2 | 3.2 | 0.00 | 0.00 | 0.00 | 52 | 1010.0 |
| 20260504215119 | 26 | 210 | 0.0 | 0.0 | 0.00 | 0.00 | 0.00 | 54 | 1010.1 |
| 20260504214614 | 26 | 228 | 0.0 | 1.6 | 0.00 | 0.00 | 0.00 | 53 | 1010.1 |
| 20260504214503 | 26 | 150 | 3.2 | 4.8 | 0.00 | 0.00 | 0.00 | 53 | 1014.7 |
| 20260504214111 | 26 | 165 | 1.6 | 3.2 | 0.00 | 0.00 | 0.00 | 53 | 1010.0 |
| 20260504214004 | 26 | 166 | 3.2 | 8.0 | 0.00 | 0.00 | 0.00 | 52 | 1014.8 |
| 20260504213607 | 26 | 206 | 0.0 | 0.0 | 0.00 | 0.00 | 0.00 | 54 | 1010.4 |
| 20260504213503 | 26 | 198 | 1.6 | 4.8 | 0.00 | 0.00 | 0.00 | 53 | 1014.9 |
| 20260504213104 | 26 | 119 | 3.2 | 4.8 | 0.00 | 0.00 | 0.00 | 52 | 1010.2 |
| 20260504212600 | 26 | 231 | 0.0 | 1.6 | 0.00 | 0.00 | 0.00 | 52 | 1010.3 |
| 20260504212058 | 27 | 16 | 0.0 | 1.6 | 0.00 | 0.00 | 0.00 | 51 | 1010.5 |
| 20260504211554 | 27 | 216 | 0.0 | 0.0 | 0.00 | 0.00 | 0.00 | 50 | 1010.6 |
| 20260504211504 | 27 | 132 | 1.6 | 4.8 | 0.00 | 0.00 | 0.00 | 50 | 1015.2 |
| 20260504211051 | 27 | 221 | 1.6 | 1.6 | 0.00 | 0.00 | 0.00 | 48 | 1010.6 |
| 20260504210549 | 27 | 239 | 3.2 | 3.2 | 0.00 | 0.00 | 0.00 | 50 | 1010.6 |
| 20260504210504 | 26 | 188 | 1.6 | 4.8 | 0.00 | 0.00 | 0.00 | 51 | 1015.3 |
| 20260504210045 | 26 | 131 | 3.2 | 4.8 | 0.00 | 0.00 | 0.00 | 49 | 1010.7 |
| 20260504210004 | 26 | 208 | 1.6 | 8.0 | 0.00 | 0.00 | 0.00 | 50 | 1015.4 |
| 20260504205543 | 26 | 193 | 1.6 | 3.2 | 0.00 | 0.00 | 0.00 | 48 | 1010.9 |
| 20260504205041 | 26 | 190 | 4.8 | 4.8 | 0.00 | 0.00 | 0.00 | 47 | 1010.9 |
| 20260504204538 | 27 | 147 | 1.6 | 3.2 | 0.00 | 0.00 | 0.00 | 47 | 1011.1 |
| 20260504204503 | 27 | 214 | 1.6 | 3.2 | 0.00 | 0.00 | 0.00 | 49 | 1015.6 |
| 20260504204038 | 27 | 226 | 1.6 | 1.6 | 0.00 | 0.00 | 0.00 | 47 | 1011.3 |
| 20260504203535 | 26 | 209 | 1.6 | 1.6 | 0.00 | 0.00 | 0.00 | 51 | 1011.0 |
| 20260504203503 | 26 | 176 | 0.0 | 1.6 | 0.00 | 0.00 | 0.00 | 49 | 1015.9 |
| 20260504203032 | 27 | 196 | 1.6 | 1.6 | 0.00 | 0.00 | 0.00 | 48 | 1011.4 |
| 20260504202527 | 27 | 137 | 3.2 | 3.2 | 0.00 | 0.00 | 0.00 | 47 | 1011.4 |
| 20260504202025 | 27 | 262 | 1.6 | 3.2 | 0.00 | 0.00 | 0.00 | 47 | 1011.3 |
| 20260504201522 | 27 | 264 | 0.0 | 1.6 | 0.00 | 0.00 | 0.00 | 47 | 1011.4 |
| 20260504201504 | 27 | 218 | 0.0 | 1.6 | 0.00 | 0.00 | 0.00 | 48 | 1016.1 |
| 20260504201020 | 27 | 218 | 0.0 | 1.6 | 0.00 | 0.00 | 0.00 | 49 | 1011.8 |
| 20260504201004 | 27 | 189 | 0.0 | 3.2 | 0.00 | 0.00 | 0.00 | 47 | 1016.4 |
| 20260504200515 | 27 | 157 | 3.2 | 3.2 | 0.00 | 0.00 | 0.00 | 48 | 1011.9 |
| 20260504200503 | 26 | 190 | 1.6 | 3.2 | 0.00 | 0.00 | 0.00 | 49 | 1016.3 |
| 20260504200013 | 26 | 240 | 0.0 | 0.0 | 0.00 | 0.00 | 0.00 | 49 | 1011.7 |
| 20260504195509 | 26 | 231 | 0.0 | 1.6 | 0.00 | 0.00 | 0.00 | 49 | 1011.8 |
| 20260504195005 | 26 | 124 | 4.8 | 8.0 | 0.00 | 0.00 | 0.00 | 48 | 1011.9 |
| 20260504194504 | 26 | 191 | 0.0 | 4.8 | 0.00 | 0.00 | 0.00 | 52 | 1016.7 |
| 20260504194502 | 26 | 189 | 1.6 | 1.6 | 0.00 | 0.00 | 0.00 | 49 | 1012.2 |
| 20260504193957 | 26 | 259 | 4.8 | 4.8 | 0.00 | 0.00 | 0.00 | 47 | 1012.4 |
| 20260504193503 | 26 | 234 | 1.6 | 4.8 | 0.00 | 0.00 | 0.00 | 49 | 1017.0 |
| 20260504193455 | 26 | 235 | 3.2 | 3.2 | 0.00 | 0.00 | 0.00 | 49 | 1012.4 |
| 20260504193003 | 26 | 199 | 1.6 | 3.2 | 0.00 | 0.00 | 0.00 | 49 | 1017.1 |
| 20260504192953 | 26 | 178 | 1.6 | 1.6 | 0.00 | 0.00 | 0.00 | 50 | 1012.4 |
| 20260504192450 | 26 | 227 | 1.6 | 3.2 | 0.00 | 0.00 | 0.00 | 54 | 1012.4 |
| 20260504191949 | 26 | 217 | 0.0 | 0.0 | 0.00 | 0.00 | 0.00 | 51 | 1012.5 |
| 20260504191504 | 26 | 237 | 1.6 | 3.2 | 0.00 | 0.00 | 0.00 | 48 | 1017.2 |
| 20260504191447 | 26 | 235 | 1.6 | 1.6 | 0.00 | 0.00 | 0.00 | 49 | 1012.5 |
| 20260504190941 | 26 | 221 | 1.6 | 1.6 | 0.00 | 0.00 | 0.00 | 49 | 1012.6 |
| 20260504190504 | 26 | 212 | 0.0 | 3.2 | 0.00 | 0.00 | 0.00 | 49 | 1017.3 |
| 20260504190438 | 26 | 230 | 1.6 | 3.2 | 0.00 | 0.00 | 0.00 | 50 | 1012.8 |
| 20260504190004 | 26 | 232 | 1.6 | 3.2 | 0.00 | 0.00 | 0.00 | 52 | 1017.5 |
| 20260504185934 | 26 | 221 | 0.0 | 1.6 | 0.00 | 0.00 | 0.00 | 51 | 1012.8 |
| 20260504185432 | 26 | 195 | 0.0 | 1.6 | 0.00 | 0.00 | 0.00 | 55 | 1013.2 |
| 20260504184928 | 25 | 188 | 3.2 | 3.2 | 0.00 | 0.00 | 0.00 | 52 | 1013.1 |
| 20260504184504 | 25 | 201 | 1.6 | 4.8 | 0.00 | 0.00 | 0.00 | 52 | 1017.6 |
| 20260504184423 | 25 | 207 | 1.6 | 1.6 | 0.00 | 0.00 | 0.00 | 52 | 1013.0 |
| 20260504184003 | 25 | 236 | 1.6 | 4.8 | 0.00 | 0.00 | 0.00 | 54 | 1017.6 |
| 20260504183920 | 25 | 180 | 0.0 | 1.6 | 0.00 | 0.00 | 0.00 | 55 | 1013.0 |
| 20260504183417 | 25 | 187 | 4.8 | 4.8 | 0.00 | 0.00 | 0.00 | 50 | 1013.4 |
| 20260504183003 | 25 | 234 | 4.8 | 11.3 | 0.00 | 0.00 | 0.00 | 52 | 1017.8 |
| 20260504182915 | 25 | 225 | 6.4 | 8.0 | 0.00 | 0.00 | 0.00 | 52 | 1013.3 |
| 20260504182412 | 25 | 324 | 1.6 | 3.2 | 0.00 | 0.00 | 0.00 | 52 | 1013.3 |
| 20260504181908 | 25 | 195 | 4.8 | 4.8 | 0.00 | 0.00 | 0.00 | 52 | 1013.5 |
| 20260504181504 | 25 | 201 | 1.6 | 3.2 | 0.00 | 0.00 | 0.00 | 54 | 1018.1 |
| 20260504181406 | 25 | 224 | 1.6 | 3.2 | 0.00 | 0.00 | 0.00 | 54 | 1013.6 |
| 20260504181003 | 25 | 169 | 1.6 | 3.2 | 0.00 | 0.00 | 0.00 | 53 | 1018.3 |
| 20260504180904 | 25 | 157 | 1.6 | 1.6 | 0.00 | 0.00 | 0.00 | 53 | 1013.8 |
| 20260504180503 | 25 | 182 | 3.2 | 8.0 | 0.00 | 0.00 | 0.00 | 53 | 1018.3 |
| 20260504180403 | 25 | 182 | 3.2 | 8.0 | 0.00 | 0.00 | 0.00 | 53 | 1013.7 |
| 20260504180004 | 25 | 231 | 3.2 | 8.0 | 0.00 | 0.00 | 0.00 | 51 | 1018.4 |
| 20260504175901 | 25 | 243 | 3.2 | 3.2 | 0.00 | 0.00 | 0.00 | 51 | 1013.9 |
| 20260504175357 | 25 | 202 | 3.2 | 3.2 | 0.00 | 0.00 | 0.00 | 52 | 1013.9 |
| 20260504174855 | 25 | 171 | 1.6 | 3.2 | 0.00 | 0.00 | 0.00 | 53 | 1014.0 |
| 20260504174352 | 25 | 212 | 0.0 | 1.6 | 0.00 | 0.00 | 0.00 | 51 | 1014.1 |
| 20260504174003 | 25 | 228 | 1.6 | 3.2 | 0.00 | 0.00 | 0.00 | 51 | 1018.3 |
| 20260504173849 | 25 | 229 | 0.0 | 1.6 | 0.00 | 0.00 | 0.00 | 50 | 1013.8 |
| 20260504173503 | 24 | 206 | 1.6 | 8.0 | 0.00 | 0.00 | 0.00 | 53 | 1018.5 |
| 20260504173346 | 24 | 219 | 1.6 | 1.6 | 0.00 | 0.00 | 0.00 | 53 | 1014.0 |
| 20260504173004 | 24 | 229 | 3.2 | 12.9 | 0.00 | 0.00 | 0.00 | 52 | 1018.8 |
| 20260504172843 | 25 | 225 | 3.2 | 4.8 | 0.00 | 0.00 | 0.00 | 52 | 1014.3 |
| 20260504172340 | 24 | 165 | 3.2 | 3.2 | 0.00 | 0.00 | 0.00 | 50 | 1014.3 |
| 20260504171835 | 25 | 204 | 1.6 | 3.2 | 0.00 | 0.00 | 0.00 | 53 | 1014.2 |
| 20260504171504 | 24 | 193 | 1.6 | 3.2 | 0.00 | 0.00 | 0.00 | 54 | 1019.0 |
| 20260504171333 | 24 | 192 | 1.6 | 3.2 | 0.00 | 0.00 | 0.00 | 54 | 1014.5 |
| 20260504171004 | 24 | 244 | 1.6 | 3.2 | 0.00 | 0.00 | 0.00 | 53 | 1019.2 |
| 20260504170830 | 24 | 240 | 1.6 | 1.6 | 0.00 | 0.00 | 0.00 | 52 | 1014.7 |
| 20260504170504 | 25 | 241 | 3.2 | 4.8 | 0.00 | 0.00 | 0.00 | 53 | 1019.1 |
| 20260504170327 | 25 | 205 | 1.6 | 1.6 | 0.00 | 0.00 | 0.00 | 56 | 1014.5 |
| 20260504160245 | 22 | 220 | 1.6 | 3.2 | 0.00 | 0.00 | 0.00 | 59 | 1014.9 |
| 20260504151004 | 21 | 162 | 1.6 | 3.2 | 0.00 | 0.00 | 0.00 | 65 | 1019.6 |
| 20260504150710 | 21 | 220 | 1.6 | 1.6 | 0.00 | 0.00 | 0.00 | 64 | 1015.1 |
| 20260504150207 | 21 | 121 | 3.2 | 3.2 | 0.00 | 0.00 | 0.00 | 63 | 1015.2 |
| 20260504141136 | 19 | 130 | 0.0 | 0.0 | 0.00 | 0.00 | 0.00 | 73 | 1015.4 |
| 20260504141004 | 18 | 212 | 0.0 | 1.6 | 0.00 | 0.00 | 0.00 | 73 | 1019.8 |
| 20260504140633 | 18 | 193 | 0.0 | 1.6 | 0.00 | 0.00 | 0.00 | 73 | 1015.5 |
| 20260504140504 | 18 | 233 | 1.6 | 3.2 | 0.00 | 0.00 | 0.00 | 75 | 1019.7 |
| 20260504140129 | 18 | 230 | 1.6 | 3.2 | 0.00 | 0.00 | 0.00 | 74 | 1015.1 |
| 20260504130557 | 16 | 187 | 0.0 | 0.0 | 0.00 | 0.00 | 0.00 | 84 | 1015.2 |
| 20260504130504 | 16 | 202 | 0.0 | 0.0 | 0.00 | 0.00 | 0.00 | 85 | 1019.6 |
| 20260504110504 | 12 | 201 | 0.0 | 0.0 | 0.00 | 0.00 | 0.00 | 93 | 1019.4 |
| 20260504110445 | 12 | 201 | 0.0 | 0.0 | 0.00 | 0.00 | 0.00 | 93 | 1014.8 |